Location: Meinert
(37.9441°N, 122.0275°W)
Time: 10:50:38
(UTC+00:00)

Daily predictions for brighter satellites

Satellite Brightness Start Highest point End
(mag) Time Altitude Azimuth Time Altitude Azimuth Time Altitude Azimuth
Chandra Rocket (1) 3.2 12:11:17 18° SSW 12:12:29 21° SSE 12:16:42 10° ESE
Cosmos 1470 Rocket 3.6 12:08:43 10° NNW 12:13:02 55° W 12:17:21 10° S
CZ-3 Stage 3 4.5 12:06:21 16° W 12:13:21 37° SSW 12:16:42 10° SE
Cosmos 1470 3.5 12:10:59 10° N 12:14:43 53° E 12:18:24 10° SSE
Cosmos 1066 Rocket 4.4 12:15:19 17° SW 12:19:12 46° WNW 12:24:29 10° N
ALOS 4.2 12:19:06 10° NW 12:21:12 13° WNW 12:22:14 12° WNW
USA 290 2.6 12:19:10 10° NW 12:22:02 36° WSW 12:24:52 10° S
Cosmos 1655 Rocket 3.9 12:19:42 10° S 12:25:54 80° W 12:32:10 10° N
CZ-2C R/B 3.2 12:24:43 10° N 12:29:26 36° WNW 12:33:32 13° SW
Cosmos 2297 3.7 12:27:48 10° NNW 12:33:31 65° WSW 12:39:10 10° S
Cosmos 2369 Rocket 2.2 12:28:22 10° NNW 12:33:59 88° WSW 12:39:34 10° SSE
KORONAS-FOTON 3.9 12:31:37 10° SSW 12:35:08 46° W 12:38:40 10° N
Cosmos 1626 3.9 12:36:18 11° WNW 12:36:36 11° WNW 12:37:45 10° NW
Cosmos 1933 Rocket 3.6 12:35:53 10° NNW 12:40:08 54° W 12:44:20 10° S
Cosmos 2315 Rocket 3.9 12:35:13 10° N 12:41:24 77° W 12:47:34 10° S
Cosmos 1766 4.2 12:38:20 10° NW 12:41:25 25° W 12:44:28 10° SSW
Thor Agena Rocket 4.4 12:37:09 10° N 12:41:30 30° WNW 12:45:53 10° SW
Cosmos 1908 3.3 12:38:04 10° N 12:41:43 74° E 12:45:18 10° SSE
ATLAS 2AS CENTAUR R/B 4.0 12:36:44 11° W 12:42:31 26° NW 12:48:24 10° NNE
ATLAS 5 CENTAUR R/B 2.5 12:39:12 10° NW 12:44:26 50° WSW 12:50:48 10° SSE
H-2A R/B 2.0 12:42:18 10° N 12:47:22 83° WNW 12:52:34 10° SSW
CZ-3 R/B 3.6 12:28:49 12° WSW 12:48:38 43° S 12:55:34 10° ESE
Cosmos 1943 3.4 12:46:22 10° SW 12:51:57 57° WNW 12:57:34 10° NNE
Meteor 1-23 Rocket 4.5 12:47:11 10° S 12:52:50 77° E 12:58:27 10° NNE
Cosmos 2263 4.2 12:47:24 10° NNW 12:53:04 84° WSW 12:58:43 10° SSE
ISS -2.2 12:50:41 10° SSW 12:53:39 31° SE 12:56:37 10° ENE
YAOGAN 11 4.2 12:51:23 10° SSE 12:55:52 88° W 13:00:25 10° NNW
ARGOS 4.1 12:52:27 10° NNE 12:57:42 52° E 13:02:53 10° S
Cosmos 1656 Rocket 4.0 12:52:43 10° NW 12:57:45 40° WSW 13:02:48 10° S
Cosmos 1484 Rocket 3.2 13:00:03 10° N 13:03:24 37° WNW 13:06:43 10° SW
ASTRO E2 3.7 13:01:59 10° WSW 13:05:00 27° S 13:08:01 10° SE
NOSS 3-1 (A) 4.3 12:58:45 10° NW 13:06:34 75° WSW 13:15:45 10° SSE
